| time (UTC) | temp C | wind direction | speed KPH | gust KPH | rain 1hr cm | rain 24hr cm | rain mn cm | humidity % | barometer mb |
| 20260505221555 | 12 | 0 | 0.0 | 0.0 | 0.00 | 1.68 | 0.00 | 93 | 1012.4 |
| 20260505220050 | 12 | 0 | 0.0 | 4.8 | 0.00 | 1.68 | 0.00 | 93 | 1012.3 |
| 20260505214548 | 12 | 0 | 0.0 | 4.8 | 0.00 | 1.68 | 1.68 | 92 | 1012.6 |
| 20260505213048 | 12 | 0 | 0.0 | 4.8 | 0.00 | 1.68 | 1.68 | 92 | 1012.6 |
| 20260505211552 | 12 | 0 | 1.6 | 6.4 | 0.00 | 1.68 | 1.68 | 91 | 1012.7 |
| 20260505210049 | 13 | 0 | 0.0 | 0.0 | 0.00 | 1.68 | 1.68 | 91 | 1012.7 |
| 20260505204548 | 13 | 0 | 0.0 | 0.0 | 0.00 | 1.68 | 1.68 | 91 | 1012.9 |
| 20260505203050 | 13 | 0 | 0.0 | 0.0 | 0.00 | 1.68 | 1.68 | 90 | 1012.9 |
| 20260505201548 | 13 | 0 | 0.0 | 0.0 | 0.00 | 1.68 | 1.68 | 90 | 1012.9 |
| 20260505200048 | 13 | 0 | 0.0 | 4.8 | 0.00 | 1.68 | 1.68 | 89 | 1012.8 |
| 20260505194557 | 13 | 0 | 0.0 | 0.0 | 0.00 | 1.68 | 1.68 | 89 | 1012.8 |
| 20260505193104 | 13 | 86 | 1.6 | 4.8 | 0.00 | 1.68 | 1.68 | 89 | 1012.8 |
| 20260505191544 | 13 | 92 | 3.2 | 6.4 | 0.00 | 1.68 | 1.68 | 88 | 1012.6 |
| 20260505190053 | 13 | 94 | 3.2 | 4.8 | 0.00 | 1.68 | 1.68 | 88 | 1012.5 |
| 20260505184555 | 13 | 0 | 0.0 | 0.0 | 0.00 | 1.68 | 1.68 | 88 | 1012.5 |
| 20260505183051 | 13 | 0 | 0.0 | 6.4 | 0.00 | 1.68 | 1.68 | 88 | 1012.5 |
| 20260505181548 | 13 | 0 | 0.0 | 6.4 | 0.00 | 1.68 | 1.68 | 88 | 1012.4 |
| 20260505180045 | 13 | 36 | 3.2 | 6.4 | 0.00 | 1.68 | 1.68 | 87 | 1012.4 |
| 20260505174546 | 13 | 16 | 3.2 | 8.0 | 0.00 | 1.68 | 1.68 | 87 | 1012.4 |
| 20260505173046 | 13 | 344 | 3.2 | 11.3 | 0.00 | 1.68 | 1.68 | 86 | 1012.5 |
| 20260505171549 | 13 | 5 | 3.2 | 6.4 | 0.00 | 1.68 | 1.68 | 85 | 1012.5 |
| 20260505170046 | 14 | 327 | 3.2 | 8.0 | 0.00 | 1.68 | 1.68 | 86 | 1012.5 |
| 20260505164545 | 13 | 340 | 4.8 | 8.0 | 0.00 | 1.68 | 1.68 | 85 | 1012.7 |
| 20260505163045 | 14 | 344 | 1.6 | 8.0 | 0.00 | 1.68 | 1.68 | 83 | 1012.7 |
| 20260505161547 | 14 | 311 | 4.8 | 8.0 | 0.00 | 1.68 | 1.68 | 82 | 1012.5 |
| 20260505153056 | 14 | 17 | 4.8 | 8.0 | 0.00 | 1.68 | 1.68 | 83 | 1012.8 |
| 20260505151551 | 13 | 21 | 3.2 | 6.4 | 0.00 | 1.68 | 1.68 | 84 | 1012.8 |
| 20260505124550 | 12 | 308 | 1.6 | 6.4 | 0.00 | 1.68 | 1.68 | 89 | 1013.7 |
| 20260505123057 | 12 | 355 | 1.6 | 6.4 | 0.00 | 1.68 | 1.68 | 89 | 1013.8 |
| 20260505121543 | 12 | 279 | 4.8 | 6.4 | 0.00 | 1.68 | 1.68 | 89 | 1013.7 |
| 20260505120054 | 12 | 284 | 4.8 | 12.9 | 0.00 | 1.68 | 1.68 | 89 | 1013.8 |
| 20260505114552 | 12 | 347 | 4.8 | 8.0 | 0.00 | 1.68 | 1.68 | 88 | 1013.6 |
| 20260505113051 | 12 | 325 | 1.6 | 9.7 | 0.00 | 1.68 | 1.68 | 88 | 1013.9 |
| 20260505111546 | 12 | 0 | 0.0 | 1.6 | 0.00 | 1.68 | 1.68 | 90 | 1013.9 |
| 20260505101548 | 11 | 0 | 0.0 | 0.0 | 0.00 | 1.68 | 1.65 | 93 | 1014.1 |
| 20260505100045 | 11 | 206 | 1.6 | 8.0 | 0.00 | 1.68 | 1.65 | 93 | 1014.3 |
| 20260505094548 | 11 | 245 | 6.4 | 11.3 | 0.00 | 1.68 | 1.65 | 93 | 1014.4 |
| 20260505093045 | 11 | 257 | 3.2 | 4.8 | 0.00 | 1.68 | 1.65 | 92 | 1014.1 |
| 20260505091613 | 11 | 251 | 3.2 | 9.7 | 0.00 | 1.68 | 1.65 | 92 | 1014.2 |
| 20260505090104 | 11 | 252 | 1.6 | 11.3 | 0.00 | 1.65 | 1.63 | 90 | 1014.2 |
| 20260505084602 | 11 | 197 | 1.6 | 6.4 | 0.00 | 1.65 | 1.63 | 89 | 1013.9 |
| 20260505083104 | 11 | 214 | 1.6 | 6.4 | 0.00 | 1.65 | 1.63 | 90 | 1013.9 |
| 20260505081557 | 11 | 226 | 3.2 | 6.4 | 0.00 | 1.65 | 1.63 | 90 | 1013.9 |
| 20260505080057 | 11 | 237 | 3.2 | 6.4 | 0.00 | 1.65 | 1.63 | 90 | 1013.9 |
| 20260505074545 | 11 | 250 | 3.2 | 6.4 | 0.00 | 1.65 | 1.63 | 91 | 1013.9 |
| 20260505073052 | 11 | 0 | 0.0 | 12.9 | 0.00 | 1.65 | 1.63 | 92 | 1013.8 |
| 20260505071549 | 11 | 207 | 6.4 | 11.3 | 0.00 | 1.65 | 1.63 | 92 | 1013.8 |
| 20260505070052 | 11 | 228 | 3.2 | 6.4 | 0.00 | 1.65 | 1.63 | 93 | 1013.6 |
| 20260505064549 | 11 | 0 | 0.0 | 0.0 | 0.00 | 1.65 | 1.63 | 93 | 1013.6 |
| 20260505063052 | 11 | 0 | 0.0 | 3.2 | 0.00 | 1.65 | 1.63 | 93 | 1013.6 |
| 20260505061550 | 11 | 269 | 3.2 | 6.4 | 0.00 | 1.65 | 1.63 | 93 | 1013.7 |
| 20260505060100 | 11 | 248 | 6.4 | 11.3 | 0.00 | 1.65 | 1.63 | 93 | 1013.6 |
| 20260505054553 | 11 | 250 | 6.4 | 9.7 | 0.00 | 1.65 | 1.63 | 94 | 1013.6 |
| 20260505053052 | 11 | 228 | 3.2 | 6.4 | 0.00 | 1.65 | 1.63 | 93 | 1013.5 |
| 20260505051549 | 11 | 216 | 3.2 | 6.4 | 0.03 | 1.65 | 1.63 | 93 | 1013.4 |
| 20260505041553 | 11 | 246 | 4.8 | 9.7 | 0.61 | 1.60 | 1.57 | 93 | 1013.7 |
| 20260505040049 | 11 | 232 | 4.8 | 14.5 | 0.56 | 1.40 | 1.40 | 93 | 1013.7 |
| 20260505034546 | 11 | 269 | 12.9 | 20.9 | 0.46 | 1.24 | 1.22 | 93 | 1014.2 |
| 20260505033051 | 11 | 232 | 9.7 | 17.7 | 0.41 | 1.12 | 1.12 | 93 | 1014.3 |
| 20260505031544 | 11 | 213 | 11.3 | 20.9 | 0.30 | 0.97 | 0.94 | 93 | 1014.2 |
| 20260505030109 | 11 | 221 | 6.4 | 11.3 | 0.18 | 0.84 | 0.84 | 93 | 1014.2 |
| 20260505024551 | 11 | 196 | 4.8 | 17.7 | 0.15 | 0.79 | 0.76 | 92 | 1014.1 |
| 20260505023048 | 11 | 213 | 11.3 | 16.1 | 0.08 | 0.71 | 0.69 | 92 | 1014.3 |
| 20260505021548 | 11 | 206 | 6.4 | 11.3 | 0.03 | 0.64 | 0.64 | 92 | 1014.2 |
| 20260505020048 | 11 | 232 | 1.6 | 6.4 | 0.08 | 0.64 | 0.64 | 92 | 1014.3 |
| 20260505014603 | 11 | 140 | 1.6 | 6.4 | 0.15 | 0.64 | 0.61 | 92 | 1014.4 |
| 20260505013052 | 11 | 0 | 0.0 | 6.4 | 0.28 | 0.64 | 0.61 | 92 | 1014.7 |
| 20260505011545 | 11 | 159 | 0.0 | 4.8 | 0.36 | 0.61 | 0.58 | 91 | 1015.0 |
| 20260505010054 | 11 | 0 | 1.6 | 4.8 | 0.36 | 0.56 | 0.56 | 91 | 1015.0 |
| 20260505004550 | 11 | 106 | 1.6 | 4.8 | 0.28 | 0.46 | 0.46 | 90 | 1015.3 |
| 20260505003057 | 11 | 156 | 1.6 | 9.7 | 0.25 | 0.36 | 0.33 | 90 | 1015.6 |
| 20260505001559 | 11 | 229 | 3.2 | 9.7 | 0.18 | 0.23 | 0.20 | 89 | 1015.7 |
| 20260505000053 | 11 | 202 | 3.2 | 8.0 | 0.13 | 0.18 | 0.18 | 88 | 1016.0 |
| 20260504234549 | 11 | 186 | 3.2 | 14.5 | 0.10 | 0.15 | 0.13 | 87 | 1016.3 |
| 20260504233048 | 12 | 174 | 6.4 | 11.3 | 0.03 | 0.08 | 0.05 | 85 | 1016.4 |
| 20260504231548 | 12 | 189 | 6.4 | 14.5 | 0.03 | 0.05 | 0.03 | 84 | 1016.6 |
| 20260504230046 | 12 | 187 | 4.8 | 9.7 | 0.03 | 0.05 | 0.03 | 84 | 1016.7 |
| 20260504224548 | 12 | 217 | 3.2 | 8.0 | 0.00 | 0.03 | 0.00 | 83 | 1016.8 |
| 20260504223102 | 12 | 239 | 4.8 | 9.7 | 0.03 | 0.03 | 0.00 | 81 | 1017.2 |